This demonstration page uses our WeatherBlox Daily Observations layout. Learn more.

Left ArrowRight Arrow

Hourly Observations for June 18, 2019

Temp ( °F °C ) Dew Point ( °F °C ) Humidity (%) Winds ( mph kmh ) Pressure ( in mb ) Visibility ( mi km ) Precip ( " mm )
12:56 am 00:56 Cloudy with Light Rain 63 17.2 61 16.1 93 93 Calm 30.00 1016 10 16 0.06 1.52
1:56 am 01:56 Partly Cloudy 64 17.8 61 16.1 90 90 ESE 3 6 29.97 1015 10 16 0.03 0.76
2:56 am 02:56 Mostly Cloudy with Light Rain 64 17.8 61 16.1 90 90 NNW 5 7 29.96 1014 10 16 0.00 0.03
3:27 am 03:27 Cloudy 63 17 63 17 100 100 N 12 19 29.95 1014 10 16 0.00 0.00
3:56 am 03:56 Mostly Cloudy 62 16.7 61 16.1 96 96 NNE 7 11 29.95 1014 10 16 0.00 0.00
4:56 am 04:56 Cloudy 63 17.2 61 16.1 93 93 NNE 3 6 29.95 1014 10 16 0.00 0.00
5:56 am 05:56 Cloudy with Light Rain 63 17.2 62 16.7 97 97 WSW 3 6 29.96 1015 8 13 0.04 1.02
6:56 am 06:56 Cloudy with Light Rain 63 17.2 62 16.7 97 97 NW 5 7 29.97 1015 7 11 0.15 3.81
7:06 am 07:06 Cloudy with Light Rain 63 17 63 17 100 100 NNW 6 9 29.97 1015 6 10 0.01 0.25
7:16 am 07:16 Cloudy with Light Rain 63 17 63 17 100 100 NNW 5 7 29.97 1015 6 10 0.00 0.00
7:26 am 07:26 Cloudy with Light Rain 63 17 63 17 100 100 N 6 9 29.96 1015 6 10 0.02 0.51
7:36 am 07:36 Cloudy with Light Rain 63 17 63 17 100 100 N 7 11 29.96 1015 6 10 0.03 0.76
7:56 am 07:56 Cloudy with Light Rain 63 17.2 62 16.7 97 97 NNE 6 9 29.96 1015 5 8 0.05 1.27
8:27 am 08:27 Cloudy with Light Rain 63 17 61 16 94 94 NNE 10 17 29.95 1014 7 11 0.00 0.00
8:43 am 08:43 Cloudy with Light Rain 63 17 61 16 94 94 NNE 8 13 29.95 1014 6 10 0.04 1.02
8:56 am 08:56 Cloudy with Light Rain 62 16.7 61 16.1 96 96 NNE 8 13 29.96 1015 6 10 0.05 1.27
9:56 am 09:56 Mostly Cloudy with Light Rain 62 16.7 61 16.1 96 96 NNE 10 17 29.96 1015 10 16 0.03 0.76
10:25 am 10:25 Cloudy with Light Rain 63 17 61 16 94 94 NE 5 7 29.95 1014 10 16 0.00 0.00
10:34 am 10:34 Cloudy with Light Rain 63 17 61 16 94 94 NNE 7 11 29.95 1014 10 16 0.02 0.51
10:50 am 10:50 Cloudy with Light Rain 63 17 61 16 94 94 NE 8 13 29.95 1014 9 14 0.03 0.76
10:56 am 10:56 Cloudy with Light Rain 63 17.2 62 16.7 97 97 NE 8 13 29.97 1015 9 14 0.04 1.02
11:56 am 11:56 Cloudy with Light Rain 63 17.2 62 16.7 97 97 NE 9 15 29.96 1015 9 14 0.07 1.78
12:56 pm 12:56 Cloudy with Light Rain 64 17.8 63 17.2 96 96 NE 9 15 29.96 1015 8 13 0.08 2.03
1:56 pm 13:56 Cloudy with Light Rain 64 17.8 63 17.2 96 96 ENE 10 17 29.94 1014 9 14 0.11 2.79
2:56 pm 14:56 Cloudy with Light Rain 65 18.3 63 17.2 93 93 E 9 15 29.93 1014 10 16 0.03 0.76
3:34 pm 15:34 Cloudy with Light Rain 66 19 63 17 88 88 ENE 13 20 29.89 1012 10 16 0.01 0.25
3:54 pm 15:54 Cloudy with Light Rain 64 18 63 17 94 94 NE 15 24 29.90 1013 10 16 0.03 0.76
3:56 pm 15:56 Cloudy with Rain 64 17.8 61 16.1 90 90 NE 13 20 29.93 1013 10 16 0.04 1.02
4:05 pm 16:05 Cloudy with Rain 63 17 63 17 100 100 NE 10 17 29.90 1013 9 14 0.04 1.02
4:17 pm 16:17 Cloudy with Heavy Rain 63 17 63 17 100 100 NE 12 19 29.90 1013 7 11 0.00 0.00
4:28 pm 16:28 Cloudy with Rain 63 17 63 17 100 100 NE 13 20 29.90 1013 6 10 0.21 5.33
4:34 pm 16:34 Cloudy with Heavy Rain 63 17 61 16 94 94 ENE 14 22 29.90 1013 6 10 0.29 7.37
4:48 pm 16:48 Cloudy with Heavy Rain 63 17 61 16 94 94 ENE 15 24 29.89 1012 4 6 0.48 12.19
4:56 pm 16:56 Cloudy with Rain 62 16.7 61 16.1 96 96 ENE 18 30 29.91 1013 6 10 0.55 13.97
5:52 pm 17:52 Cloudy 61 16 57 14 88 88 NE 16 26 29.91 1013 10 16 0.10 2.54
5:56 pm 17:56 Cloudy 60 15.6 58 14.4 93 93 NE 14 22 29.92 1013 10 16 0.10 2.54
6:56 pm 18:56 Cloudy 60 15.6 58 14.4 93 93 NE 13 20 29.91 1013 10 16 0.00 0.00
7:28 pm 19:28 Cloudy 61 16 57 14 88 88 NE 13 20 29.90 1012 10 16 0.00 0.00
7:56 pm 19:56 Cloudy 60 15.6 57 13.9 90 90 NE 12 19 29.92 1013 10 16 0.00 0.00
8:56 pm 20:56 Cloudy 60 15.6 56 13.3 86 86 NE 9 15 29.92 1013 10 16 0.00 0.00
9:45 pm 21:45 Mostly Clear 57 14 55 13 94 94 NNE 3 6 29.92 1013 10 16 0.00 0.00
9:56 pm 21:56 Mostly Clear 58 14.4 56 13.3 93 93 NE 3 6 29.93 1014 10 16 0.00 0.00
10:05 pm 22:05 Partly Cloudy 57 14 55 13 94 94 N 3 6 29.92 1013 10 16 0.00 0.00
10:56 pm 22:56 Partly Cloudy 57 13.9 56 13.3 96 96 NNE 6 9 29.93 1013 10 16 0.00 0.00
11:06 pm 23:06 Mostly Cloudy 57 14 55 13 94 94 NE 6 9 29.91 1013 10 16 0.00 0.00
11:15 pm 23:15 Mostly Cloudy 57 14 55 13 94 94 NNE 5 7 29.91 1013 10 16 0.00 0.00
11:32 pm 23:32 Partly Cloudy 55 13 55 13 100 100 N 6 9 29.92 1013 10 16 0.00 0.00
11:56 pm 23:56 Partly Cloudy 57 13.9 55 12.8 93 93 NNE 7 11 29.91 1013 10 16 0.00 0.00

Powered by AerisWeather